Starlink 2494

operational
NORAD ID: 48487 Int'l Des: 2021-040 Owner: SPXS Country: US Constellation: starlink
LEOCIRCULARSTARLINK_TYPE

About Starlink 2494

Description loading...

Live Position

Loading 3D Globe...

Upcoming Passes

Altitude History

Altitude vs Time

uPlot chart will show altitude changes over time

Two-Line Element Set

1 48487U 21040BM 25353.95273583 -.00000141 00000-0 94443-5 0 9994
2 48487 53.0532 199.5673 0001613 85.7512 274.3661 15.06401258254338
Epoch: Dec 19, 2025 • Age: 17 hours

Current Status

Altitude 549.7 km
Velocity 7.59 km/s
Sub-Earth Point -8.02°S, 58.58°E
Launch Date May 9, 2021
Age 4.6 years
Type internet

Technical Details

Classification Payload
Mass 260.00 kg
Dry Mass 248.00 kg
Total Mass 260.00 kg
Length 0.20 m
Diameter 2.80 m
Span 9.00 m
Shape Box + pan
Manufacturer SPXS
Bus Type Starlink
Phase Status In Orbit
Owner/State SPXS/US

Large Constellations

Loading constellations...